When you browse on this site, cookies collect data to enhance your experience and personalize the content and advertising you see.
Visit our Privacy Policy to learn more. By continuing to use the site, you agree to this use of cookies and data.

Meteo pe oră la Dzieciary

Astăzi, 18 Septembrie, Vineri

Timp Temperatura Precipitaţii Vânt Presiune Umiditate
00:00 +9°C° 0 mm 2 m/s 753 mmHg 77%
01:00 +8°C° 0 mm 2 m/s 753 mmHg 79%
02:00 +8°C° 0 mm 2 m/s 753 mmHg 81%
03:00 +7°C° 0 mm 2 m/s 753 mmHg 82%
04:00 +8°C° 0 mm 1 m/s 753 mmHg 84%
05:00 +8°C° 0 mm 2 m/s 753 mmHg 81%
06:00 +8°C° 0 mm 2 m/s 753 mmHg 77%
07:00 +9°C° 0 mm 2 m/s 754 mmHg 72%
08:00 +10°C° 0 mm 2 m/s 754 mmHg 64%
09:00 +13°C° 0 mm 2 m/s 754 mmHg 56%
10:00 +14°C° 0 mm 3 m/s 754 mmHg 48%
11:00 +14°C° 0 mm 3 m/s 754 mmHg 45%
12:00 +16°C° 0 mm 3 m/s 753 mmHg 42%
13:00 +17°C° 0 mm 3 m/s 753 mmHg 39%
14:00 +17°C° 0 mm 3 m/s 753 mmHg 40%
15:00 +17°C° 0 mm 3 m/s 753 mmHg 41%
16:00 +17°C° 0 mm 3 m/s 752 mmHg 42%
17:00 +16°C° 0 mm 2 m/s 752 mmHg 47%
18:00 +14°C° 0 mm 2 m/s 753 mmHg 51%
19:00 +13°C° 0 mm 1 m/s 753 mmHg 55%
20:00 +12°C° 0 mm 1 m/s 753 mmHg 56%
21:00 +12°C° 0 mm 1 m/s 753 mmHg 57%
22:00 +11°C° 0 mm 1 m/s 753 mmHg 58%
23:00 +10°C° 0 mm 0 m/s 753 mmHg 59%

Mâine, 19 Septembrie, Sâmbătă

Timp Temperatura Precipitaţii Vânt Presiune Umiditate
00:00 +10°C° 0 mm 0 m/s 753 mmHg 60%
01:00 +10°C° 0 mm 0 m/s 753 mmHg 61%
02:00 +9°C° 0 mm 0 m/s 752 mmHg 61%
03:00 +9°C° 0 mm 0 m/s 752 mmHg 62%
04:00 +9°C° 0 mm 0 m/s 752 mmHg 62%
05:00 +11°C° 0 mm 1 m/s 752 mmHg 61%
06:00 +11°C° 0 mm 1 m/s 752 mmHg 60%
07:00 +12°C° 0 mm 1 m/s 752 mmHg 59%
08:00 +14°C° 0 mm 1 m/s 751 mmHg 54%
09:00 +15°C° 0 mm 1 m/s 751 mmHg 48%
10:00 +18°C° 0 mm 1 m/s 751 mmHg 43%
11:00 +19°C° 0 mm 1 m/s 751 mmHg 40%
12:00 +20°C° 0 mm 1 m/s 751 mmHg 38%
13:00 +21°C° 0 mm 1 m/s 750 mmHg 35%
14:00 +21°C° 0 mm 1 m/s 750 mmHg 37%
15:00 +20°C° 0 mm 2 m/s 750 mmHg 38%
16:00 +20°C° 0 mm 2 m/s 749 mmHg 39%
17:00 +18°C° 0 mm 2 m/s 749 mmHg 44%
18:00 +16°C° 0 mm 2 m/s 749 mmHg 48%
19:00 +14°C° 0 mm 2 m/s 749 mmHg 53%
20:00 +14°C° 0 mm 2 m/s 749 mmHg 54%
21:00 +13°C° 0 mm 2 m/s 749 mmHg 55%
22:00 +13°C° 0 mm 2 m/s 749 mmHg 57%
23:00 +13°C° 0 mm 2 m/s 749 mmHg 57%

Poimâine, 20 Septembrie, Duminică

Timp Temperatura Precipitaţii Vânt Presiune Umiditate
00:00 +12°C° 0 mm 2 m/s 749 mmHg 58%
01:00 +12°C° 0 mm 2 m/s 748 mmHg 58%
02:00 +12°C° 0 mm 2 m/s 748 mmHg 60%
03:00 +10°C° 0 mm 2 m/s 748 mmHg 61%
04:00 +10°C° 0 mm 2 m/s 748 mmHg 62%
05:00 +12°C° 0 mm 2 m/s 748 mmHg 63%
06:00 +12°C° 0 mm 2 m/s 748 mmHg 63%
07:00 +12°C° 0 mm 3 m/s 748 mmHg 64%
08:00 +13°C° 0 mm 3 m/s 748 mmHg 59%
09:00 +16°C° 0 mm 3 m/s 748 mmHg 55%
10:00 +18°C° 0 mm 4 m/s 748 mmHg 51%
11:00 +19°C° 0 mm 4 m/s 748 mmHg 49%
12:00 +20°C° 0 mm 4 m/s 748 mmHg 47%
13:00 +20°C° 0 mm 4 m/s 747 mmHg 45%
14:00 +20°C° 0 mm 4 m/s 747 mmHg 47%
15:00 +20°C° 0 mm 3 m/s 747 mmHg 50%
16:00 +20°C° 0 mm 3 m/s 747 mmHg 52%
17:00 +18°C° 0 mm 3 m/s 747 mmHg 57%
18:00 +17°C° 0 mm 3 m/s 747 mmHg 62%
19:00 +15°C° 0 mm 2 m/s 747 mmHg 67%
20:00 +15°C° 0 mm 2 m/s 747 mmHg 70%
21:00 +14°C° 0 mm 2 m/s 747 mmHg 74%
22:00 +13°C° 0 mm 2 m/s 747 mmHg 77%
23:00 +13°C° 0 mm 2 m/s 747 mmHg 79%

21 Septembrie, Luni

Timp Temperatura Precipitaţii Vânt Presiune Umiditate
00:00 +13°C° 0 mm 2 m/s 747 mmHg 81%
01:00 +12°C° 0 mm 2 m/s 746 mmHg 83%
02:00 +12°C° 0 mm 1 m/s 746 mmHg 84%
03:00 +12°C° 0 mm 1 m/s 746 mmHg 85%
04:00 +11°C° 0 mm 1 m/s 746 mmHg 86%
05:00 +12°C° 0 mm 1 m/s 746 mmHg 83%
06:00 +13°C° 0 mm 1 m/s 746 mmHg 81%
07:00 +13°C° 0 mm 1 m/s 746 mmHg 78%
08:00 +16°C° 0 mm 1 m/s 746 mmHg 69%
09:00 +19°C° 0 mm 1 m/s 746 mmHg 60%
10:00 +21°C° 0 mm 1 m/s 746 mmHg 51%
11:00 +22°C° 0 mm 1 m/s 746 mmHg 47%
12:00 +24°C° 0 mm 1 m/s 746 mmHg 43%
13:00 +25°C° 0 mm 1 m/s 746 mmHg 38%
14:00 +25°C° 0 mm 1 m/s 746 mmHg 39%
15:00 +25°C° 0 mm 1 m/s 745 mmHg 40%
16:00 +24°C° 0 mm 1 m/s 745 mmHg 41%
17:00 +23°C° 0 mm 1 m/s 745 mmHg 46%
18:00 +21°C° 0 mm 1 m/s 745 mmHg 50%
19:00 +19°C° 0 mm 1 m/s 745 mmHg 54%
20:00 +18°C° 0 mm 2 m/s 745 mmHg 56%
21:00 +17°C° 0 mm 2 m/s 745 mmHg 58%
22:00 +17°C° 0 mm 2 m/s 745 mmHg 61%
23:00 +17°C° 0 mm 2 m/s 745 mmHg 62%

22 Septembrie, Marţi

Timp Temperatura Precipitaţii Vânt Presiune Umiditate
00:00 +16°C° 0 mm 3 m/s 745 mmHg 63%
01:00 +16°C° 0 mm 3 m/s 744 mmHg 63%
02:00 +16°C° 0 mm 3 m/s 744 mmHg 63%
03:00 +16°C° 0 mm 3 m/s 744 mmHg 63%
04:00 +14°C° 0 mm 3 m/s 743 mmHg 63%
05:00 +16°C° 0 mm 3 m/s 743 mmHg 63%
06:00 +16°C° 0 mm 3 m/s 743 mmHg 63%
07:00 +17°C° 0 mm 3 m/s 743 mmHg 63%
08:00 +19°C° 0 mm 4 m/s 743 mmHg 56%
09:00 +22°C° 0 mm 4 m/s 743 mmHg 49%
10:00 +25°C° 0 mm 4 m/s 743 mmHg 42%
11:00 +26°C° 0 mm 5 m/s 743 mmHg 39%
12:00 +27°C° 0 mm 5 m/s 742 mmHg 36%
13:00 +28°C° 0 mm 5 m/s 742 mmHg 33%
14:00 +27°C° 0 mm 5 m/s 741 mmHg 36%
15:00 +27°C° 0 mm 4 m/s 741 mmHg 39%
16:00 +27°C° 0 mm 3 m/s 740 mmHg 42%
17:00 +25°C° 0 mm 3 m/s 740 mmHg 46%
18:00 +22°C° 0 mm 3 m/s 740 mmHg 50%
19:00 +20°C° 0 mm 3 m/s 740 mmHg 54%
20:00 +20°C° 0 mm 3 m/s 740 mmHg 52%
21:00 +20°C° 0 mm 3 m/s 740 mmHg 51%
22:00 +19°C° 0 mm 3 m/s 740 mmHg 50%
23:00 +19°C° 0 mm 3 m/s 740 mmHg 51%

23 Septembrie, Miercuri

Timp Temperatura Precipitaţii Vânt Presiune Umiditate
00:00 +18°C° 0 mm 3 m/s 739 mmHg 52%
01:00 +18°C° 0 mm 3 m/s 739 mmHg 53%
02:00 +18°C° 0 mm 3 m/s 739 mmHg 54%
03:00 +17°C° 0 mm 3 m/s 739 mmHg 56%
04:00 +17°C° 0 mm 3 m/s 739 mmHg 57%
05:00 +17°C° 0 mm 3 m/s 739 mmHg 57%
06:00 +18°C° 0 mm 4 m/s 739 mmHg 58%
07:00 +18°C° 0 mm 4 m/s 738 mmHg 59%
08:00 +20°C° 0 mm 4 m/s 738 mmHg 56%
09:00 +21°C° 0 mm 5 m/s 738 mmHg 54%
10:00 +23°C° 0 mm 5 m/s 738 mmHg 51%
11:00 +25°C° 0 mm 5 m/s 738 mmHg 52%
12:00 +25°C° 0 mm 5 m/s 738 mmHg 53%
13:00 +25°C° 0 mm 5 m/s 738 mmHg 54%
14:00 +25°C° 0 mm 4 m/s 738 mmHg 55%
15:00 +23°C° 0 mm 4 m/s 737 mmHg 57%
16:00 +24°C° 0 mm 3 m/s 737 mmHg 59%
17:00 +22°C° 0 mm 3 m/s 737 mmHg 63%
18:00 +21°C° 0 mm 3 m/s 737 mmHg 67%
19:00 +19°C° 0 mm 2 m/s 737 mmHg 71%
20:00 +19°C° 0 mm 2 m/s 737 mmHg 74%
21:00 +19°C° 0 mm 2 m/s 737 mmHg 76%
22:00 +18°C° 0 mm 3 m/s 737 mmHg 78%
23:00 +18°C° 0 mm 3 m/s 737 mmHg 79%
Arată mai mult